Regional Weather Roundup
Issued by NWS Green Bay, WI

Home | Current Version | Previous Version | Graphics & Text | Print | Product List | Glossary Off
Versions: 1 2 3 4 5 6 7 8 9 10 11 12 13 14 15 16 17 18 19 20 21 22 23 24 25 26 27 28 29 30 31 32 33 34 35 36 37 38 39 40 41 42 43 44 45 46 47 48 49 50

000
ASUS43 KGRB 190511
RWRGRB

NORTH-CENTRAL AND NORTHEAST WISCONSIN REGIONAL WEATHER ROUNDUP
NATIONAL WEATHER SERVICE GREEN BAY WI
1100 PM CST SAT FEB 18 2017

WIZ005-009-010>012-018-019-190600-
NORTH CENTRAL WISCONSIN

CITY           SKY/WX    TMP DP  RH WIND       PRES   REMARKS
IRONWOOD       MOCLDY    44  28  53 SW9       29.80R
MANITOWISH WTR PTCLDY    40  28  64 W5        29.80S
ARBOR VITAE    CLOUDY    42  30  63 CALM      29.80S
EAGLE RIVER    CLOUDY    42  27  55 W8        29.79S
LAND O LAKES   PTCLDY    44  27  51 W7        29.80R
RHINELANDER    CLOUDY    41  32  70 W8        29.81R
PHILLIPS       CLOUDY    37  31  78 CALM      29.81S
ANTIGO         CLOUDY    37  31  78 W5        29.83R
TOMAHAWK       PTCLDY    43  31  61 W5        29.83R
MERRILL        NOT AVBL
$$

WIZ013-073-190600-
NORTHEAST WISCONSIN

CITY           SKY/WX    TMP DP  RH WIND       PRES   REMARKS
IRON MOUNTAIN  MOCLDY    46  26  45 W9        29.76R
MARINETTE      CLOUDY    44  30  57 W6        29.79R
OCONTO         CLOUDY    42  31  64 W6        29.80R
$$

WIZ017-030-035>037-045-190600-
CENTRAL WISCONSIN

CITY           SKY/WX    TMP DP  RH WIND       PRES   REMARKS
MEDFORD        PTCLDY    40  31  71 W5        29.83S
WAUSAU         PTCLDY    41  32  70 NW5       29.82R
MOSINEE        PTCLDY    41  32  70 W6        29.84S
MARSHFIELD     CLOUDY    41  32  70 W7        29.83S
WISC RAPIDS    CLOUDY    36  29  75 CALM      29.86R
STEVENS POINT  CLOUDY    42  31  65 W3        29.85R
WAUPACA        CLOUDY    47  31  52 CALM      29.84R
SHAWANO        CLOUDY    46  32  59 W5        29.83R
CLINTONVILLE   MOCLDY    37  30  75 W3        29.82R
WAUTOMA        PTCLDY    34  30  85 CALM      29.85R
$$

WIZ038-039-048-051-190600-
FOX VALLEY

CITY           SKY/WX    TMP DP  RH WIND       PRES   REMARKS
NWS GREEN BAY  CLOUDY    43  33  68 W8        29.81R
APPLETON       PTCLDY    39  27  60 W10       29.80R
OSHKOSH        PTCLDY    43  30  60 W5        29.83R
FOND DU LAC    PTCLDY    44  29  55 W8        29.83R
$$

WIZ022-050-052-190600-
EAST CENTRAL WISCONSIN

CITY           SKY/WX    TMP DP  RH WIND       PRES   REMARKS
EPHRAIM        FAIR      42  31  65 W7        29.77R
WASHINGTON ISL FAIR      38  30  74 W8        29.76R
STURGEON BAY   PTCLDY    46  31  55 W12       29.79R
MANITOWOC      PTCLDY    47  31  53 MISG      29.81R
SHEBOYGAN      CLOUDY    45  30  55 W6        29.83R
$$

LMZ563-521-522-541>543-190600-
LAKESHORE

STATION/POSITION TIME  TEMP    WIND        PRES    VSBY  WAVE
                       AIR SEA DIR/SP/G                  HT/PER
                 (UTC) (F)     (DEG/KT/KT) (MB)    (MI)  (FT/S)
SHEBOYGAN LKSHOR 0500   51     280/ 11/ 15 1009.6R
KEWAUNEE LKSHORE 0442   48     300/  7/ 10 1008.1R
ALGOMA MARINA    0425          320/  9/ 15   N/A
NORTHPORT PIER   0440   47     250/  3/  7 1007.8R
SISTER BAY LKSHO 0420   45     270/ 13/ 14   N/A
CHAMBERS ISLAND  0440   42     200/  6/ 10 1008.1R
MENOMINEE LKSHOR 0442   44     240/  9/ 11 1007.7R
$$




USA.gov is the U.S. government's official web portal to all federal, state and local government web resources and services.